sat.trackr.live / text

‹ back to catalog

STARLINK-11662 [DTC]

NORAD 63754 · 2025-089D

PAYLOAD ACTIVE UNKNOWN

§ Identity

Operator
Country
US
Launch date
2025-04-29
Launch site
AFETR
Launch vehicle
Mass (kg)
RCS (m²)

Purposes: comms

External: N2YO · Heavens-Above · Gunter

§ Orbital elements

Epoch: 2026-05-25T04:11:58.850016Z

Period
91.66 min
Inclination
42.9964°
Eccentricity
0.0000816
Mean motion
15.70955921 rev/d
Perigee alt
355.6 km
Apogee alt
356.7 km
Semi-major
6,734.3 km
B*
1.2172e-3
RAAN
191.3075°
Arg perigee
150.4605°
Mean anomaly
209.6309°
Rev number
6,221

§ Raw data

STARLINK-11662 [DTC]1 63754U 25089D   26145.17498669  .00159540  00000+0  12172-2 0  99952 63754  42.9964 191.3075 0000816 150.4605 209.6309 15.70955921 62217

JSON: /api/v1/satellites/63754 · /tle

For live sub-satellite position, see the globe view (requires WebGL).

§ Visibility from observer

Set your observer location to see the next 7 days of passes ≥ 10°. The values pass through the URL so the page stays shareable.

No JS? Fill the form by hand. The geolocation button needs JavaScript.